カタログに戻る

BUZZZER-1

運用中通信SSO
NORAD 62609·PAYLOAD·🇫🇷 France

打ち上げ Jan 14, 2025 から Vandenberg Space Force Base

Loading…

次のパス (今後24時間)

TLE

最新Source: Space-Track

元期: Sep 14, 2026, 11:14 UTC

1 62609U 25009A   26257.46831306  .00002193  00000-0  98422-4 0  9996
2 62609  97.3863 334.1556 0008251  32.4927 327.6815 15.22215033 92277

AllMySatでBUZZZER-1をリアルタイム追跡

Download on the App Store